#timestamp,LO_Frequency,Hit,StdDev 
1611072015.8,286046991.4,N
1611072035.7,286046991.6,Y
1611072055.5,286046998.0,P
1611072075.3,286046996.6,N
1611072095.2,286046999.1,N
1611072115.0,286046998.4,N
1611072115.9,286046998.4,N
1611072135.7,286046999.5,N
1611072155.6,286046997.5,N
1611072175.4,286046996.2,N
1611072195.3,286046995.7,N
1611072215.1,286046995.1,N
1611072216.0,286046995.1,N
1611072235.8,286046995.6,N
1611072255.7,286046995.7,N
1611072275.5,286046995.4,N
1611072295.4,286046995.1,N
1611072315.2,286046999.3,N
1611072335.0,286047001.1,N
1611072335.9,286047001.1,N
1611072355.8,286047001.8,N
1611072375.6,286046999.8,N
1611072395.4,286047000.9,N
1611072415.3,286047000.1,N
1611072435.1,286047002.2,N
1611072455.9,286047003.3,N
1611072475.7,286047008.8,Y
1611072495.5,286047011.4,P
1611072515.4,286047009.4,N
1611072535.2,286047010.7,N
1611072555.1,286047008.2,N
1611072556.0,286047008.2,N
1611072575.8,286047012.2,N
1611072595.6,286047011.6,N
1611072615.5,286047011.2,N
1611072635.3,286047009.9,N
1611072655.2,286047009.6,N
1611072675.9,286047010.8,N
1611072695.7,286047009.4,N
1611072715.6,286047012.3,Y
1611072735.4,286046999.9,P
1611072755.2,286047001.2,N
1611072775.1,286046999.2,N
1611072776.0,286046999.2,N
1611072795.8,286047000.5,N
1611072815.7,286047001.1,N
1611072835.5,286046999.2,N
1611072855.3,286046997.0,N
1611072875.2,286046996.7,N
1611072895.0,286046999.1,N
1611072895.9,286046999.1,N
1611072915.8,286046995.5,N
1611072935.6,286046997.7,N
1611072955.4,286046995.8,N
1611072975.3,286046993.8,N
1611072995.1,286046993.6,N
1611073015.8,286046997.1,N
1611073035.7,286047001.0,N
1611073055.5,286047003.6,N
1611073075.4,286047004.9,N
1611073095.2,286047007.1,N
1611073115.0,286047008.0,N
1611073115.9,286047008.0,N
1611073135.8,286047010.4,N
1611073155.6,286047002.9,N
1611073175.4,286047005.4,N
1611073195.3,286047005.3,N
1611073215.1,286047002.9,N
1611073235.9,286047003.8,N
1611073255.7,286046999.9,N
1611073275.5,286046999.5,N
1611073295.4,286046996.9,N
1611073315.2,286046996.5,N
1611073335.1,286046996.9,N
1611073336.0,286046996.9,N
1611073355.8,286046999.5,N
1611073375.6,286046997.0,N
1611073395.5,286047000.8,N
1611073415.3,286047000.3,N
1611073435.1,286046999.8,N
1611073455.9,286046999.7,N
1611073475.7,286046999.8,N
1611073495.6,286047000.7,N
1611073515.4,286046998.4,N
1611073535.2,286046999.4,N
1611073555.1,286046999.2,N
1611073556.0,286046999.2,N
1611073575.8,286046997.4,N
1611073595.7,286046999.1,N
1611073615.5,286046997.2,N
1611073635.3,286046999.1,N
1611073655.2,286046997.7,N
1611073675.0,286046997.7,N
1611073675.9,286046997.7,N
1611073695.7,286046997.9,N
1611073715.6,286046995.8,N
1611073735.4,286046995.8,N
1611073755.3,286046995.3,N
1611073775.1,286046999.1,N
1611073795.8,286046996.6,N
1611073815.7,286046999.2,N
1611073835.5,286046996.5,N
1611073855.4,286046997.1,N
1611073875.2,286046994.9,Y
1611073895.0,286046995.4,P
1611073895.9,286046995.4,P
1611073915.8,286046995.0,P
1611073935.6,286046997.9,N
1611073955.5,286046995.1,Y
1611073975.3,286046998.2,P
1611073995.1,286047002.4,N
1611074015.9,286047000.8,N
1611074035.7,286047000.0,N
1611074055.5,286046998.6,N
1611074075.4,286047000.3,N
1611074095.2,286046999.0,N
1611074115.1,286046998.6,N
1611074116.0,286046998.6,N
1611074135.8,286046999.6,N
1611074155.6,286046997.2,N
1611074175.5,286046999.3,N
1611074195.3,286046998.5,N
1611074215.2,286046997.7,N
1611074235.9,286046995.4,Y
1611074255.7,286046998.5,P
1611074275.6,286047002.1,P
1611074295.4,286047002.5,N
1611074315.2,286047000.3,N
1611074335.1,286047000.1,N
1611074336.0,286047000.1,N
1611074355.8,286046999.3,N
1611074375.7,286047001.1,N
1611074395.5,286046998.4,N
1611074415.3,286046998.4,N
1611074435.2,286046998.9,N
1611074455.0,286047000.7,N
1611074455.9,286047000.7,N
1611074475.8,286046998.6,N
1611074495.6,286046997.3,N
1611074515.4,286046998.6,N
1611074535.3,286047000.9,N
1611074555.1,286046999.7,N
1611074575.8,286047000.1,N
1611074595.7,286046999.7,N
1611074615.5,286047000.3,N
1611074635.4,286047000.3,N
1611074655.2,286047002.8,N
1611074675.0,286046998.5,N
1611074675.9,286046998.5,N
1611074695.8,286046998.2,N
1611074715.6,286046998.5,N
1611074735.4,286047000.5,N
1611074755.3,286047001.0,N
1611074775.1,286046998.2,N
1611074795.9,286046998.4,N
1611074815.7,286046997.7,N
1611074835.5,286046997.2,N
1611074855.4,286046996.9,N
1611074875.2,286046996.9,N
1611074895.1,286046998.8,N
1611074896.0,286046998.8,N
1611074915.8,286046998.4,N
1611074935.6,286046999.5,N
1611074955.5,286046998.6,N
1611074975.3,286046999.1,N
1611074995.1,286046996.9,N
1611075015.9,286047000.6,N
1611075035.7,286047001.7,N
1611075055.6,286047001.4,N
1611075075.4,286047001.1,N
1611075095.2,286046995.1,Y
1611075115.1,286046996.6,P
1611075116.0,286046996.6,N
1611075135.8,286046995.0,P
1611075155.7,286046995.7,N
1611075175.5,286046995.9,N
1611075195.3,286046993.3,Y
1611075215.2,286046999.2,P
1611075235.0,286046997.7,N
1611075235.9,286046997.7,N
1611075255.8,286046995.0,Y
1611075275.6,286046997.1,P
1611075295.4,286046997.7,P
1611075315.3,286046999.4,N
1611075335.1,286046997.1,Y
1611075355.8,286046999.2,P
1611075375.7,286046997.4,P
1611075395.5,286046997.2,P
1611075415.4,286046997.2,Y
1611075435.2,286047001.0,P
1611075455.0,286046999.9,N
1611075455.9,286046999.9,N
1611075475.8,286047000.2,N
1611075495.6,286047002.2,N
1611075515.5,286047000.9,N
1611075535.3,286047001.0,N
1611075555.1,286046999.9,N
1611075575.9,286046999.7,N
1611075595.7,286047004.3,Y
